Your browser is no longer supported. Please, upgrade your browser.
Filter
Ticker Owner Relationship Date Transaction Cost #Shares Value ($) #Shares Total SEC Form 4
BMISERDYNSKI RAYMOND GVP-ManufacturingApr 23Option Exercise30.886,703206,97514,332Apr 24 01:24 PM
BMISERDYNSKI RAYMOND GVP-ManufacturingApr 23Sale56.536,703378,9237,629Apr 24 01:24 PM
AKAMKillalea Peter ThomasDirectorApr 13Option Exercise0.001,86601,866Apr 24 01:03 PM
UNPWhited Elizabeth FEVP & CHIEF HR OFFICERApr 23Option Exercise66.003,000198,00066,341Apr 24 01:01 PM
CHGGROSENSWEIG DANIELPRESIDENT, CEO & CO-CHAIRMANApr 22Option Exercise12.50150,0001,875,0002,322,754Apr 24 12:53 PM
CHGGROSENSWEIG DANIELPRESIDENT, CEO & CO-CHAIRMANApr 22Option Exercise7.8815,000118,12510,000Apr 24 12:53 PM
CHGGROSENSWEIG DANIELPRESIDENT, CEO & CO-CHAIRMANApr 22Sale37.71150,0005,657,0002,222,754Apr 24 12:53 PM
CHGGROSENSWEIG DANIELPRESIDENT, CEO & CO-CHAIRMANApr 22Sale37.4315,000561,4000Apr 24 12:53 PM
KMIKINDER RICHARD DExecutive ChairmanApr 23Buy19.9029,622589,475239,601,954Apr 24 12:15 PM
MACaldart GilbertoPresident, InternationalApr 22Option Exercise65.3946,7723,058,29146,772Apr 24 11:57 AM
MACaldart GilbertoPresident, InternationalApr 22Sale241.0646,77211,274,9450Apr 24 11:57 AM
DXLGConacher Lionel F.DirectorApr 22Buy2.2622,00049,72737,998Apr 24 11:32 AM
NXSTMiller DennisDirectorMar 21Sale108.613,125339,406625Apr 24 11:26 AM
NXSTMiller DennisDirectorMar 01Sale72.313,125225,9693,750Apr 24 11:24 AM
TPLHorizon Kinetics LLC10% OwnerApr 23Buy898.873632,359203,944Apr 24 11:14 AM
RLIMICHAEL JONATHAN EPresident & CEOApr 22Option Exercise0.0032,0000755,309Apr 24 10:21 AM
PNFPSamuel Ronald LVice ChairmanApr 23Sale56.741,60090,79023,175Apr 24 10:02 AM
ADPWeinstein DonaldCorporate VPApr 23Option Exercise69.721,706118,93726,220Apr 24 09:29 AM
ADPWeinstein DonaldCorporate VPApr 23Sale165.011,706281,51424,514Apr 24 09:29 AM
ADPSiegmund JanCorporate Vice PresidentApr 23Option Exercise86.6127,2722,362,02877,595Apr 24 09:29 AM
ADPSiegmund JanCorporate Vice PresidentApr 23Sale165.0027,2724,499,88050,323Apr 24 09:29 AM
TRECAL ATHEL FAHAD MOHAMMED SALEH10% OwnerApr 23Sale9.4824,361230,9422,946,924Apr 24 08:04 AM
STRAGILLIGAN J KEVINExecutive Vice ChairmanApr 22Sale138.056,349876,47142,622Apr 24 07:30 AM
IRMMacLean TheodoreEVP, Adjacent BusinessesApr 22Sale35.803,442123,22411,204Apr 23 08:49 PM
NATIKODOSKY JEFFREY LDirectorApr 22Sale46.6050023,300353,586Apr 23 08:22 PM
NATIKODOSKY JEFFREY LDirectorApr 22Sale46.601,50069,900349,373Apr 23 08:22 PM
CRMBenioff MarcChairman of the Board & co-CEOApr 22Sale157.715,000788,53431,378,800Apr 23 08:15 PM
CRMBenioff MarcChairman of the Board & co-CEOApr 23Sale160.325,000801,59331,373,800Apr 23 08:15 PM
CRMHawkins Mark JPresident and CFOApr 23Option Exercise78.808,220647,77129,382Apr 23 08:07 PM
CRMHawkins Mark JPresident and CFOApr 22Option Exercise118.047,050832,18228,212Apr 23 08:07 PM
CRMHawkins Mark JPresident and CFOApr 22Sale158.007,0501,113,90021,162Apr 23 08:07 PM
CRMHawkins Mark JPresident and CFOApr 23Sale159.838,2201,313,80321,162Apr 23 08:07 PM
CRMWeaver Amy EPres., Legal & General CounselApr 22Option Exercise0.001,287026,888Apr 23 08:03 PM
CRMWeaver Amy EPres., Legal & General CounselApr 23Sale159.91647103,46126,241Apr 23 08:03 PM
CRMTallapragada SrinivasPresident, TechnologyApr 22Option Exercise0.003,591029,607Apr 23 08:02 PM
CRMTallapragada SrinivasPresident, TechnologyApr 23Sale159.911,804288,47627,803Apr 23 08:02 PM
CRMRobbins Cynthia G.Pres. and Chief People OfficerApr 22Option Exercise0.001,28703,567Apr 23 07:59 PM
CRMRobbins Cynthia G.Pres. and Chief People OfficerApr 23Sale159.91647103,4612,920Apr 23 07:59 PM
CRMHarris ParkerCo-Founder and CTOApr 23Option Exercise52.305,711298,68533,883Apr 23 07:55 PM
CRMHarris ParkerCo-Founder and CTOApr 23Sale160.345,711915,71628,172Apr 23 07:55 PM
CRMHarris ParkerCo-Founder and CTOApr 23Sale160.3662099,420298,552Apr 23 07:55 PM
EXTRMEYERCORD EDWARDPRESIDENT AND CEOApr 22Option Exercise0.00112,5000595,192Apr 23 07:43 PM
EQIXCampbell Michael EarlChief Sales OfficerApr 22Sale445.74250111,4353,578Apr 23 07:22 PM
MGPChien Andy HCFO and TreasurerApr 19Option Exercise0.002,82309,684Apr 23 07:11 PM
MGPStewart James C.Chief Executive OfficerApr 19Option Exercise0.005,645018,752Apr 23 07:09 PM
EIGRDietz Thomas JohnDirectorApr 23Buy11.105,00055,49520,000Apr 23 06:53 PM
RIGTonnel David ASVP and Corporate ControllerApr 22Sale9.2516,561153,183105,736Apr 23 06:25 PM
CRVLCORSTAR HOLDINGS INC10% OwnerApr 18Sale68.0053436,3126,853,419Apr 23 06:23 PM
CRVLCORSTAR HOLDINGS INC10% OwnerApr 23Sale68.646,277430,8776,847,142Apr 23 06:23 PM
NOWSchneider DavidPRESIDENT, GLOBAL CUSTOMER OPSApr 22Sale236.023,414805,77244,259Apr 23 06:19 PM
AHCMORONEY JAMES M IIIDirectorApr 22Sale4.003,04512,180283,164Apr 23 05:57 PM
AHCMORONEY JAMES M IIIDirectorApr 23Sale4.00100400283,064Apr 23 05:57 PM
MPWRBlegen TheodoreCFOApr 22Sale152.891,047160,07583,190Apr 23 05:52 PM
PIDIORIO CHRIS PH.D.Chief Executive OfficerApr 22Sale20.0010,000200,000325,478Apr 23 05:49 PM
MIMEMurray NeilDirectorApr 22Sale47.9425,0001,198,4422,282,067Apr 23 05:48 PM
MIMEBauer PeterChief Executive OfficerApr 22Sale47.6411,250535,94335,096Apr 23 05:45 PM
MIMEBauer PeterChief Executive OfficerApr 22Sale47.457,500355,8752,220,000Apr 23 05:45 PM
RILYB. Riley Financial, Inc.10% OwnerApr 18Sale7.665003,828189,046Apr 23 05:41 PM
RILYB. Riley Financial, Inc.10% OwnerApr 22Sale7.423,00022,273186,046Apr 23 05:41 PM
RILYB. Riley Financial, Inc.10% OwnerApr 23Sale7.615,27240,097180,774Apr 23 05:41 PM
ABMSALMIRS SCOTT BPresident and CEOApr 22Option Exercise18.314,48482,102157,091Apr 23 05:33 PM
ABMSALMIRS SCOTT BPresident and CEOApr 23Option Exercise18.316,487118,777159,094Apr 23 05:33 PM
ABMSALMIRS SCOTT BPresident and CEOApr 23Sale37.506,487243,263152,607Apr 23 05:33 PM
ABMSALMIRS SCOTT BPresident and CEOApr 22Sale37.514,484168,195152,607Apr 23 05:33 PM
KALVYea ChristopherChief Development OfficerApr 22Option Exercise0.007,3553290,324Apr 23 05:33 PM
KALVYea ChristopherChief Development OfficerApr 22Sale26.047,355191,53082,969Apr 23 05:33 PM
KALVCrockett Thomas AndrewCEOApr 15Sale24.8010,000247,958258,510Apr 23 05:30 PM
CXOGRAY STEVEN DDirectorApr 22Sale120.007,000840,000179,039Apr 23 05:14 PM
ARCCBARTLETT STEVEDirectorApr 22Buy17.322003,46411,600Apr 23 05:00 PM
HDSLEVITT EVANSVP, CFO & CAOApr 22Option Exercise16.9144,167746,83680,128Apr 23 05:00 PM
HDSLEVITT EVANSVP, CFO & CAOApr 22Sale43.1644,1671,906,24835,961Apr 23 05:00 PM
SHAKMeyer Daniel HarrisDirectorApr 22Sale60.111,00060,108313,375Apr 23 04:58 PM
SHAKMeyer Daniel HarrisDirectorApr 23Sale60.258,932538,139304,443Apr 23 04:58 PM
SLBAYAT SIMONChief Financial OfficerApr 22Sale46.1025,0001,152,500255,971Apr 23 04:46 PM
EXPDMcClincy Christopher J.Senior VP - CIOApr 22Option Exercise37.134,000148,52016,848Apr 23 04:45 PM
RXNADAMS TODD A.President & CEOApr 22Sale28.0030,000839,910211,792Apr 23 04:38 PM
USBGODRIDGE LESLIE VVice ChairmanApr 22Sale51.5312,564647,42339,330Apr 23 04:34 PM
QADALOPKER PAMELA MPresidentApr 23Sale45.124,000180,4804,495,095Apr 23 04:34 PM
MKLMARKEL STEVEN AVice ChairmanApr 22Sale1011.30100101,130100,535Apr 23 04:31 PM
DALBastian Edward HChief Executive OfficerApr 22Sale57.5030,0001,725,000354,191Apr 23 04:30 PM
HOFTTOMS PAUL B JRChief Executive OfficerApr 23Buy28.971,00028,96976,756Apr 23 04:23 PM
TRECQuarles Patrick D.President and CEOApr 22Buy9.579,34689,46339,346Apr 23 04:21 PM
TRECQuarles Patrick D.President and CEOApr 23Buy9.556546,24540,000Apr 23 04:21 PM
TRECAL ATHEL FAHAD MOHAMMED SALEH10% OwnerApr 18Sale9.568,28679,2142,987,341Apr 23 04:21 PM
TRECAL ATHEL FAHAD MOHAMMED SALEH10% OwnerApr 22Sale9.5416,056153,1742,971,285Apr 23 04:21 PM
UAKrongard A BDirectorApr 22Option Exercise3.0212,33037,237157,851Apr 23 04:21 PM
UAKrongard A BDirectorApr 22Option Exercise3.0812,24437,759134,850Apr 23 04:21 PM
GOODCutlip Robert GPresidentApr 22Buy20.5750010,28449,100Apr 23 04:15 PM
PKBKINFANTOLINO EDWARDDirectorApr 22Sale22.705,000113,505107,037Apr 23 04:15 PM
UCTTSavage SheriCFO, SVP Finance and SecretaryJul 29Sale6.442,67117,201140,204Apr 23 04:14 PM
UCTTSavage SheriCFO, SVP Finance and SecretaryAug 23Sale7.381,91514,133138,289Apr 23 04:14 PM
UCTTSavage SheriCFO, SVP Finance and SecretaryOct 25Sale7.891,1989,452137,091Apr 23 04:14 PM
EMEPOMPA MARK AEVP & CFOApr 22Sale80.008,000640,000144,165Apr 23 04:09 PM
SAMVALETTE JEAN MICHELDirectorApr 22Option Exercise148.443,258483,63024,758Apr 23 04:01 PM
BLWBIRD STEPHENCEO, Global Consumer BankApr 22Sale69.3330,0002,079,900261,626Apr 23 04:01 PM
GSBCTURNER JOSEPH WPresident/CEOApr 22Option Exercise19.536,000117,180143,682Apr 23 03:40 PM
GSBCTURNER JOSEPH WPresident/CEOApr 22Sale56.256,000337,499137,682Apr 23 03:40 PM
RELLBen Robert JCFO, CAO, Corporate SecretaryApr 22Buy6.082,50015,19422,462Apr 23 03:16 PM
SMRTLEGLER MITCHELL WDirectorApr 22Sale0.952,9482,801260,489Apr 23 02:52 PM
RVPSHAW THOMAS JPresident and CEOApr 22Buy0.665,9143,90914,121,692Apr 23 02:28 PM
HFMCANENY DEBORAH HDirectorNov 21Sale45.325,000226,60058,609Apr 23 12:56 PM
ICBKEisen JacobDirectorApr 22Buy18.251,10520,1661,105Apr 23 12:50 PM
NHCTUCKER LAWRENCE CDirectorApr 22Option Exercise61.252,200134,750156,500Apr 23 12:24 PM
TPLHorizon Kinetics LLC10% OwnerApr 22Buy896.073632,259203,908Apr 23 12:22 PM
ISRGNACHTSHEIM JAMI KDirectorApr 19Option Exercise0.003320845Apr 23 12:07 PM
ISRGSMITH LONNIE MDirectorApr 19Option Exercise0.004500359,696Apr 23 11:58 AM
ISRGRUBASH MARK JDirectorApr 19Option Exercise0.0033204,298Apr 23 11:55 AM
ISRGLEVY ALAN JDirectorApr 19Option Exercise0.0033207,577Apr 23 11:52 AM
ADXSMITH CRAIG RDirectorApr 18Buy14.9117,000253,55246,469Apr 23 11:51 AM
ISRGLeonard Keith RDirectorApr 19Option Exercise0.003320845Apr 23 11:51 AM
ISRGJohnson Amal MDirectorApr 19Option Exercise0.0033209,206Apr 23 11:48 AM
ISRGFriedman Michael ADirectorApr 19Option Exercise0.0033204,751Apr 23 11:45 AM
ISRGBARRATT CRAIG HDirectorApr 19Option Exercise0.0039107,327Apr 23 11:43 AM
SCHWSCHWAB CHARLES RChairmanApr 22Sale45.29250,00011,321,55077,512,246Apr 23 11:22 AM
HSYBuck MichelePresident and CEOApr 22Sale117.001,500175,500161,429Apr 23 10:45 AM
IIINRUTKOWSKI JOSEPH ADirectorApr 22Buy18.443,00055,3328,121Apr 23 09:41 AM
HOFTWILLIAMSON HENRY G JRDirectorApr 22Buy28.138,000225,04038,941Apr 23 09:25 AM
OPKFROST PHILLIP MD ET ALCEO & ChairmanApr 22Buy2.3280,000185,61325,885,177Apr 23 06:13 AM
EIGRRyali SriramChief Financial OfficerApr 22Buy11.081,25013,8531,250Apr 22 09:34 PM
EIGRDietz Thomas JohnDirectorApr 22Buy11.055,00055,25015,000Apr 22 09:34 PM
EIGRPatton Stephana EileneSee RemarksApr 22Buy11.031,00011,0304,000Apr 22 09:31 PM
WSMBenson MartaPRESIDENT POTTERY BARN BRANDApr 18Option Exercise0.0012,409022,317Apr 22 09:01 PM
WSMBenson MartaPRESIDENT POTTERY BARN BRANDApr 20Option Exercise0.00915019,079Apr 22 09:01 PM
IRMCloutier Ernest WEVP & GM, Int'lApr 15Option Exercise29.2746,0141,346,830109,757Apr 22 08:58 PM
IRMCloutier Ernest WEVP & GM, Int'lApr 15Sale36.4146,0141,675,39763,743Apr 22 08:58 PM
IRMBicks EdwardSVP, StrategyApr 15Option Exercise24.802,92272,4762,922Apr 22 08:57 PM
WSMBellos AlexPRESIDENT WEST ELM BRANDApr 18Option Exercise0.008,409012,536Apr 22 08:57 PM
WSMBellos AlexPRESIDENT WEST ELM BRANDApr 20Option Exercise0.0065409,369Apr 22 08:57 PM
IRMBicks EdwardSVP, StrategyApr 15Sale36.552,922106,7990Apr 22 08:57 PM
IRMBicks EdwardSVP, StrategyApr 15Sale36.552,02874,1232,741Apr 22 08:57 PM
SONFuller Rodger DSVP Paper/E Carriers/DisplayApr 22Sale60.255,085306,37172,978Apr 22 08:53 PM
WSMHayes JanetPRESIDENT WS BRANDApr 18Option Exercise0.0045,685081,216Apr 22 08:51 PM
WSMHayes JanetPRESIDENT WS BRANDApr 20Option Exercise0.005,947074,123Apr 22 08:51 PM
WSMWhalen JulieEVP CHIEF FINANCIAL OFFICERApr 18Option Exercise0.0031,354055,930Apr 22 08:47 PM
WSMWhalen JulieEVP CHIEF FINANCIAL OFFICERApr 20Option Exercise0.004,117051,354Apr 22 08:47 PM
PSMTHanson Gordon H.DirectorApr 18Sale60.853,137190,8901,367Apr 22 08:43 PM
WSMKing David RandolphEVP GENERAL COUNSELApr 18Option Exercise0.0015,278028,969Apr 22 08:40 PM
WSMKing David RandolphEVP GENERAL COUNSELApr 20Option Exercise0.002,091028,163Apr 22 08:40 PM
RFILReynolds WilliamDirectorApr 18Option Exercise4.413,41615,06553,616Apr 22 08:40 PM
WSMALBER LAURAPRESIDENT & CEOApr 18Option Exercise0.00197,4000498,809Apr 22 08:36 PM
WSMALBER LAURAPRESIDENT & CEOApr 20Option Exercise0.0016,3380442,702Apr 22 08:36 PM
CVNAGARCIA ERNEST C. II10% OwnerApr 18Sale62.4830,8791,929,2950Apr 22 08:24 PM
TWLOLawson JeffChief Executive OfficerApr 18Sale121.3520,8302,527,75444,655Apr 22 07:36 PM
ATENReiss GunterVP Worldwide MarketingApr 18Sale6.831,1607,917144,647Apr 22 07:33 PM
TRUPTooth MargaretChief Revenue OfficerApr 18Option Exercise4.801,0004,8004,693Apr 22 07:16 PM
TRUPTooth MargaretChief Revenue OfficerApr 18Sale33.521,00033,5203,693Apr 22 07:16 PM
STARISTAR INC.10% OwnerApr 18Buy23.282,80065,1907,803,432Apr 22 07:13 PM
STARISTAR INC.10% OwnerApr 22Buy23.072,61460,3007,803,432Apr 22 07:13 PM
ICPTCawkwell GailSVP, Med Affairs, Safety & PVApr 18Option Exercise54.631,75095,60319,599Apr 22 07:01 PM
UNTSCHELL MARK ESR. V-P, General CounselApr 22Sale15.515,50085,305221,452Apr 22 06:31 PM
ACIAMurphy Francis JVP, Finance and PAOApr 22Sale57.8051429,70944,519Apr 22 06:19 PM
BIOSDeitsch StephenChief Financial OfficerApr 18Option Exercise0.0086,5870119,985Apr 22 06:18 PM
FIVEBARCLAY KATHLEEN SDirectorApr 18Sale140.862,500352,1457,210Apr 22 06:03 PM
FIVESARGENT RONALDDirectorApr 18Sale140.7630,0004,222,866113,674Apr 22 06:00 PM
KALVPalleiko Benjamin LCBO, CFO and SecretaryApr 18Option Exercise6.741,0737,23233,573Apr 22 05:58 PM
KALVPalleiko Benjamin LCBO, CFO and SecretaryApr 22Option Exercise8.392,00016,78034,500Apr 22 05:58 PM
KALVPalleiko Benjamin LCBO, CFO and SecretaryApr 22Sale25.802,00051,60332,500Apr 22 05:58 PM
KALVPalleiko Benjamin LCBO, CFO and SecretaryApr 18Sale25.511,07327,37332,500Apr 22 05:58 PM
PLBCBelstock Richard LEVP and CFOApr 22Option Exercise6.323,55022,43630,550Apr 22 05:44 PM
UNPFerguson Rhonda SEVP CLO & CORP SECApr 18Option Exercise107.3014,6601,573,01853,858Apr 22 05:40 PM
UNPFerguson Rhonda SEVP CLO & CORP SECApr 18Sale175.0011,4852,009,87542,373Apr 22 05:40 PM
CERSGreenman William MarinerPresident and CEOApr 22Option Exercise1.06100106628,485Apr 22 05:27 PM
SNAWard Thomas JSr VP & President - RS&I GroupApr 18Option Exercise109.4321,0002,298,03064,426Apr 22 05:24 PM
SNAWard Thomas JSr VP & President - RS&I GroupApr 18Sale169.7521,0003,564,75043,426Apr 22 05:24 PM
MDLYJACOBS ASSET MANAGEMENT, LLC10% OwnerApr 17Sale3.403001,020626,054Apr 22 05:19 PM
WSFSTURNER MARK ADirectorApr 18Option Exercise16.513004,952140,633Apr 22 05:07 PM
WSFSTURNER MARK ADirectorApr 18Sale42.5030012,750140,333Apr 22 05:07 PM
NSCWheeler Michael JosephEVP & Chief Operating OfficerApr 18Option Exercise104.2395999,95715,922Apr 22 05:05 PM
KSUOttensmeyer Patrick JPresident & CEOApr 18Option Exercise44.0813,800608,268116,675Apr 22 05:04 PM
KSUOttensmeyer Patrick JPresident & CEOApr 18Sale124.4813,8001,717,761102,875Apr 22 05:04 PM
PFIEFugal Jay GrantVP of OperationsMar 11Option Exercise1.3715,00020,55028,506Apr 22 05:03 PM
KSUHancock Brian D.EVP & Chief Innovation OfficerApr 18Option Exercise82.714,648384,43630,276Apr 22 05:01 PM
KSUHancock Brian D.EVP & Chief Innovation OfficerApr 18Sale124.774,648579,91425,628Apr 22 05:01 PM
EXLSSrivatsan NagarajaExec VP & Chief Growth OfficerApr 18Sale61.001,00061,0001,958Apr 22 05:00 PM
TJXCanestrari KennethSEVP - Group PresidentApr 22Sale54.9725,0001,374,250134,675Apr 22 04:57 PM
LGIHSnider Michael LarryPresident and COOApr 18Sale68.1319,6781,340,662155,866Apr 22 04:56 PM
NEOGHERBERT JAMES LDirectorApr 17Sale56.045,600313,810357,773Apr 22 04:50 PM
NEOGHERBERT JAMES LDirectorApr 18Sale56.0935,4001,985,686322,373Apr 22 04:50 PM
OMCRICE LINDA JOHNSONDirectorApr 18Sale83.5949741,5458,161Apr 22 04:47 PM
OMCNelson Jonathan B.CEO, Omnicom DigitalApr 18Sale84.224,916414,02479,558Apr 22 04:46 PM
SNGXZELDIS JEROME BDirectorApr 22Buy0.7310,0007,27416,917Apr 22 04:41 PM
SNGXSCHABER CHRISTOPHER JChairman, CEO and PresidentApr 22Buy0.725,0003,57742,325Apr 22 04:41 PM
JNPRLeelanivas ManojEVP Chief Product OfficerApr 20Option Exercise0.0068,000068,000Apr 22 04:41 PM
WCGGhanayem DarrenEVP, Chief Information OfficerApr 18Option Exercise0.001,36409,033Apr 22 04:21 PM
CSXWilliams Angela CVP & ControllerApr 18Option Exercise24.999,560238,90414,607Apr 22 04:21 PM
CSXWilliams Angela CVP & ControllerApr 18Sale79.149,560756,5785,047Apr 22 04:21 PM
ITRISCOPIA CAPITAL MANAGEMENT LP10% OwnerApr 18Sale50.0513,757688,5804,297,230Apr 22 04:19 PM
KKELLOGG W K FOUNDATION TRUST10% OwnerApr 22Sale58.53100,0005,853,14064,331,838Apr 22 04:18 PM
RGNXChristmas Patrick J.SVP, General CounselApr 18Option Exercise14.265,00071,2978,006Apr 22 04:17 PM
RGNXChristmas Patrick J.SVP, General CounselApr 18Sale53.235,000266,1613,006Apr 22 04:17 PM
STZKlein David EricExec Vice Pres. & CFOApr 18Sale198.6625,9805,161,17943,872Apr 22 04:16 PM
EMEGuzzi AnthonyChairman, President and CEOApr 18Sale78.0712,314961,305386,660Apr 22 04:14 PM
CSODBURLINGAME HAROLD WDirectorApr 18Option Exercise8.881,55313,79153,327Apr 22 04:13 PM
CSODBURLINGAME HAROLD WDirectorApr 18Sale52.391,55381,36851,774Apr 22 04:13 PM
AKPBulldog Investors, LLC10% OwnerApr 17Sale14.6878,8931,158,245458,486Apr 22 04:09 PM
AKPBulldog Investors, LLC10% OwnerApr 18Sale14.68457,4006,712,4361,086Apr 22 04:09 PM
MSSIMKOWITZ DANIEL AHead of Investment ManagementApr 18Buy47.577,000332,979193,089Apr 22 04:07 PM
MPWRTseng SariaVP & General CounselApr 18Sale155.336,4951,008,866317,813Apr 22 04:05 PM
SLABRichardson NinaDirectorApr 18Sale91.4191383,4575,972Apr 22 03:29 PM
IIINTHOMPSON G KENNEDYDirectorApr 22Buy17.865,00089,30017,684Apr 22 03:27 PM
open in screener